FW1313 Weather Reports


Display with metric or nautical units.
time (UTC)temp
F
wind
direction
speed
MPH
gust
MPH
rain 1hr
in
rain 24hr
in
rain mn
in
humidity
%
barometer
mb
20260901023408 58 108 0.0 0.0 0.00 0.00 0.00 57 1017.0
20260901020407 61 201 0.0 0.0 0.00 0.00 0.00 54 1016.9
20260901013407 63 169 0.0 0.0 0.00 0.00 0.00 53 1016.7
20260901010407 65 162 0.0 0.0 0.00 0.00 0.00 54 1016.6
20260901003408 68 242 0.0 1.0 0.00 0.00 0.00 51 1016.6
20260901000407 69 177 0.0 1.0 0.00 0.00 0.00 47 1016.4
20260831233407 71 211 0.0 1.0 0.00 0.00 0.00 45 1016.2
20260831230408 71 199 0.0 1.0 0.00 0.00 0.00 43 1016.0
20260831223408 72 184 0.0 1.0 0.00 0.00 0.00 41 1016.2
20260831220407 72 165 0.0 1.0 0.00 0.00 0.00 36 1016.4
20260831213408 73 212 0.0 1.0 0.00 0.00 0.00 35 1016.5
20260831210407 74 201 0.0 1.0 0.00 0.00 0.00 31 1016.3
20260831203407 75 174 0.0 1.0 0.00 0.00 0.00 30 1016.3
20260831200407 75 224 0.0 1.0 0.00 0.00 0.00 29 1015.9
20260831193408 75 203 0.0 0.0 0.00 0.00 0.00 28 1015.7
20260831190407 74 145 0.0 0.0 0.00 0.00 0.00 34 1015.4
20260831183408 74 132 0.0 0.0 0.00 0.00 0.00 43 1015.2
20260831180407 73 170 0.0 0.0 0.00 0.00 0.00 44 1014.8
20260831173408 71 160 0.0 0.0 0.00 0.00 0.00 48 1014.6
20260831170410 68 123 0.0 1.0 0.00 0.00 0.00 54 1014.4
20260831163407 66 124 0.0 0.0 0.00 0.00 0.00 52 1014.1
20260831160407 64 144 0.0 0.0 0.00 0.00 0.00 48 1014.2
20260831153408 63 108 0.0 0.0 0.00 0.00 0.00 43 1014.2
20260831150408 62 102 0.0 0.0 0.00 0.00 0.00 43 1014.1
20260831143407 61 89 0.0 0.0 0.00 0.00 0.00 33 1013.9
20260831140407 60 92 0.0 0.0 0.00 0.00 0.00 37 1013.5
20260831133407 60 105 0.0 0.0 0.00 0.00 0.00 36 1013.2
20260831130407 59 112 0.0 0.0 0.00 0.00 0.00 43 1013.2
20260831123407 59 91 0.0 0.0 0.00 0.00 0.00 48 1013.2
20260831120410 59 111 0.0 0.0 0.00 0.00 0.00 52 1013.4
20260831113411 59 103 0.0 0.0 0.00 0.00 0.00 53 1013.7
20260831110407 60 117 0.0 0.0 0.00 0.00 0.00 51 1014.1
20260831103407 60 108 0.0 0.0 0.00 0.00 0.00 53 1014.3
20260831100407 60 132 0.0 0.0 0.00 0.00 0.00 51 1014.7
20260831093407 60 114 0.0 0.0 0.00 0.00 0.00 50 1015.0
20260831090407 61 104 0.0 0.0 0.00 0.00 0.00 39 1015.4
20260831083407 61 112 0.0 0.0 0.00 0.00 0.00 32 1015.9
20260831080407 61 138 0.0 0.0 0.00 0.00 0.00 32 1016.6
20260831073408 61 131 0.0 0.0 0.00 0.00 0.00 29 1017.0
20260831070407 61 109 0.0 0.0 0.00 0.00 0.00 34 1017.3
20260831063408 62 156 0.0 0.0 0.00 0.00 0.00 36 1017.6
20260831060407 62 186 0.0 0.0 0.00 0.00 0.00 37 1017.9
20260831053407 62 156 0.0 0.0 0.00 0.00 0.00 40 1018.3
20260831050407 63 149 0.0 0.0 0.00 0.00 0.00 42 1018.5
20260831043411 63 134 0.0 0.0 0.00 0.00 0.00 40 1018.4
20260831040407 63 193 0.0 0.0 0.00 0.00 0.00 40 1018.0
20260831033407 63 118 0.0 0.0 0.00 0.00 0.00 46 1017.9
20260831030408 63 158 0.0 0.0 0.00 0.00 0.00 49 1017.6